Weather History for KLGB - February, 2013

Change the Weather History Date:

Wednesday, February 27, 2013

  Actual Average Record
Temperature  
Mean Temperature 62 °F 58 °F  
Max Temperature 77 °F 67 °F 83 °F (1992)
Min Temperature 47 °F 49 °F 35 °F (2011)
Degree Days  
Heating Degree Days 3 7  
Month to date heating degree days 243 206  
Since 1 July heating degree days 864 885  
Cooling Degree Days 0 0  
Month to date cooling degree days 5 0  
Year to date cooling degree days 5 3  
Growing Degree Days 12 (Base 50)    
Moisture  
Dew Point 28 °F    
Average Humidity 41    
Maximum Humidity 71    
Minimum Humidity 11    
Precipitation  
Precipitation 0.00 in 0.10 in 2.08 in (1991)
Month to date precipitation 0.30 2.99  
Year to date precipitation 1.34 5.59  
Since 1 July precipitation 5.14  
Sea Level Pressure  
Sea Level Pressure 30.19 in    
Wind  
Wind Speed 4 mph (WNW)    
Max Wind Speed 14 mph    
Max Gust Speed 16 mph    
Visibility 10 miles    
Events      
T = Trace of Precipitation, MM = Missing Value Source: NWS Daily Summary

Daily Weather History Graph

Daily Weather History Graph

Search for Another Location

Airport or City:

Trip Planner

Search our weather history database for the weather conditions in past years. The results will help you decide how hot, cold, wet, or windy it might be!

Date:

Astronomy

Feb. 27, 2013 Rise Set
Actual Time 6:23 AM PST 5:47 PM PST
Civil Twilight 5:58 AM PST 6:12 PM PST
Nautical Twilight 5:29 AM PST 6:41 PM PST
Astronomical Twilight 5:00 AM PST 7:10 PM PST
Moon 8:04 PM PST (2/27) 7:09 AM PST (2/27)
Length of Visible Light 12h 14m
Length of Day
11h 24m
Waning Gibbous, 96% of the Moon is Illuminated
Feb 27
Waning Gibbous
Mar 4
Last Quarter
Mar 11
New
Mar 19
First Quarter
Mar 27
Full

Hourly Weather History & Observations

Time (PST) Temp. Dew Point Humidity Pressure Visibility Wind Dir Wind Speed Gust Speed Precip Events Conditions
12:53 AM 53.1 °F 41.0 °F 64% 30.12 in 10.0 mi Calm Calm - N/A   Clear
1:53 AM 50.0 °F 39.0 °F 66% 30.12 in 10.0 mi Calm Calm - N/A   Clear
2:53 AM 48.9 °F 39.0 °F 69% 30.14 in 10.0 mi Calm Calm - N/A   Clear
4:53 AM 48.0 °F 30.0 °F 50% 30.16 in 10.0 mi North 6.9 mph - N/A   Clear
5:53 AM 50.0 °F 26.1 °F 39% 30.16 in 10.0 mi WNW 4.6 mph - N/A   Clear
6:53 AM 48.9 °F 26.1 °F 41% 30.19 in 10.0 mi NW 4.6 mph - N/A   Clear
7:53 AM 57.0 °F 27.0 °F 32% 30.21 in 10.0 mi North 8.1 mph - N/A   Clear
8:53 AM 63.0 °F 25.0 °F 24% 30.23 in 10.0 mi NNW 3.5 mph - N/A   Clear
9:53 AM 69.1 °F 23.0 °F 18% 30.22 in 10.0 mi Calm Calm - N/A   Clear
10:53 AM 73.9 °F 18.0 °F 12% 30.22 in 10.0 mi NE 4.6 mph - N/A   Clear
11:53 AM 73.9 °F 17.1 °F 12% 30.22 in 10.0 mi WNW 3.5 mph - N/A   Clear
12:53 PM 75.0 °F 18.0 °F 12% 30.19 in 10.0 mi WSW 5.8 mph - N/A   Clear
1:53 PM 75.0 °F 19.9 °F 13% 30.18 in 10.0 mi SW 8.1 mph - N/A   Clear
2:53 PM 75.0 °F 18.0 °F 12% 30.16 in 10.0 mi SSW 10.4 mph - N/A   Clear
3:53 PM 73.9 °F 18.0 °F 12% 30.17 in 10.0 mi WSW 8.1 mph - N/A   Clear
4:53 PM 71.1 °F 21.0 °F 15% 30.18 in 10.0 mi WNW 10.4 mph - N/A   Clear
5:53 PM 68.0 °F 19.9 °F 16% 30.18 in 10.0 mi WNW 8.1 mph - N/A   Clear
6:53 PM 62.1 °F 36.0 °F 38% 30.20 in 10.0 mi NNW 4.6 mph - N/A   Clear
7:53 PM 61.0 °F 37.0 °F 41% 30.22 in 10.0 mi Calm Calm - N/A   Clear
8:53 PM 59.0 °F 37.0 °F 44% 30.24 in 10.0 mi Calm Calm - N/A   Clear
9:53 PM 57.0 °F 39.0 °F 51% 30.26 in 10.0 mi Calm Calm - N/A   Clear
11:53 PM 54.0 °F 39.9 °F 59% 30.26 in 10.0 mi West 3.5 mph - N/A   Clear